Location: Newark
(45.4422°N, 16.2769°E)
Time: 17:37:27
(UTC+00:00)

Vanguard 2 - Pass Details

Date: 14 December 2019
Orbit: 553 x 2938 km, 32.9° (Epoch: 21 January)

Event Time Altitude Azimuth Distance (km) Brightness Sun altitude
Rises 07:08:54 0° 272° (W) 6,760 11.9 5.1°
Reaches altitude 10° 07:19:53 10° 241° (WSW) 5,372 11.7 6.5°
Maximum altitude 07:22:11 10° 233° (SW) 5,207 11.7 6.8°
Drops below altitude 10° 07:24:24 10° 224° (SW) 5,110 11.8 7.1°
Sets 07:33:18 0° 190° (S) 5,421 12.4 8.2°
